Weather Roundup
Issued by NWS Springfield, MO

Home | Current Version | Previous Version | Text Only | Print | Product List | Glossary On
Versions: 1 2 3 4 5 6 7 8 9 10 11 12 13 14 15 16 17 18 19 20 21 22 23 24 25 26 27 28 29 30 31 32 33 34 35 36 37 38 39 40 41 42 43 44 45 46 47 48 49 50
000
NZUS99 KSGF 261307
HRRSGF

HOURLY WEATHER
NATIONAL WEATHER SERVICE SPRINGFIELD MO
800 AM CDT TUE JUL 26 2016

......SGF CWA......

CITY           SKY/WX    TMP DP  RH WIND       PRES   REMARKS
SPRINGFIELD    PTSUNNY   77  72  84 NE5       30.05R
JOPLIN         CLOUDY    75  73  93 NE5       30.03S
WEST PLAINS    CLOUDY    76  72  87 VRB3      30.07S
ROLLA          CLOUDY    74  70  87 E5        30.05S
OSAGE BEACH    PTSUNNY   74  71  91 NE6       30.06S
BRANSON        PTSUNNY   73  72  94 CALM      30.06S

......SURROUNDING SGF CWA......

CITY           SKY/WX    TMP DP  RH WIND       PRES   REMARKS
CHANUTE        CLOUDY    76  72  87 E8        30.03S
PARSONS          N/A    N/A N/A N/A MISG      30.03S
COFFEYVILLE    CLOUDY    76  74  93 NE7       30.01R
EMPORIA        MOSUNNY   74  71  91 NE7       30.06S
GROVE OK       MOSUNNY   73  73 100 CALM      30.03R
ROGERS AR      CLOUDY    77  74  90 SE7       30.05R
SILOAM SPRINGS CLOUDY    75  64  69 CALM      30.05R
HARRISON AR    FOG       74  74 100 S3        30.06S VSB 3/4
NEAR YELLVILLE CLOUDY    75  70  83 CALM      30.01S

......KANSAS AND MISSOURI......

CITY           SKY/WX    TMP DP  RH WIND       PRES   REMARKS
KANSAS CTY INT MOSUNNY   73  68  84 E7        30.08R
DOWNTOWN KC    SUNNY     76  69  79 NE5       30.07R
COLUMBIA       CLOUDY    73  70  90 NE6       30.07R
SEDALIA        SUNNY     75  71  87 NE5       30.08R
ST JOSEPH      SUNNY     70  66  87 CALM      30.08S
ST LOUIS       CLOUDY    78  72  81 NE5       30.04S
SPIRIT OF STL  MOSUNNY   77  74  90 N3        30.03R
KIRKSVILLE     SUNNY     72  66  81 NE5       30.09S
WICHITA        CLOUDY    75  72  90 NE7       30.04S FOG
TOPEKA         SUNNY     72  68  87 CALM      30.07S
OLATHE         SUNNY     74  69  85 NE5       30.07S

......TENNESSEE......

CITY           SKY/WX    TMP DP  RH WIND       PRES   REMARKS
MEMPHIS        MOSUNNY   84  73  69 S3        30.01S HX  90
NASHVILLE      MOSUNNY   81  74  79 S3        30.05R

......ARKANSAS.......

CITY           SKY/WX    TMP DP  RH WIND       PRES   REMARKS
FAYETTEVILLE   CLOUDY    74  74 100 CALM      30.04R
FT SMITH       SUNNY     77  71  82 E7        29.99S
LITTLE ROCK    MOSUNNY   84  77  79 N3        30.00R HX  94

......OKLAHOMA.......

CITY           SKY/WX    TMP DP  RH WIND       PRES   REMARKS
TULSA          CLOUDY    78  76  93 NE6       29.98R
PONCA CITY     CLOUDY    76  73  91 E8        30.01S
MCALESTER      CLOUDY    80  74  81 NE5       30.00R
OKLAHOMA CITY  CLOUDY    74  72  93 SE6       30.02R

......IOWA............

CITY           SKY/WX    TMP DP  RH WIND       PRES   REMARKS
DES MOINES     SUNNY     73  68  84 W3        30.09R
QUAD CITIES    SUNNY     75  66  73 CALM      30.07S

......ILLINOIS........

CITY           SKY/WX    TMP DP  RH WIND       PRES   REMARKS
QUINCY         SUNNY     73  68  84 NE7       30.06S
CHICAGO        MOSUNNY   79  65  62 CALM      30.06F



USA.gov is the U.S. government's official web portal to all federal, state and local government web resources and services.